Home   Weather   Gafsa   Past weeks
Flag for Tunisia

Past Weather in Gafsa, Tunisia — Yesterday and Last 2 Weeks

Now
50 °F

Passing clouds.


Feels Like: 49 °F
Forecast: 70 / 46 °F
Wind: 3 mph from West

Location: Gafsa Airport

Current Time: Mar 30, 2020 at 9:02:08 am

Latest Report: Mar 30, 2020 at 8:00 am


Visibility: N/A

Pressure: 29.98 "Hg

Humidity: 71%

Dew Point: 41 °F

Location of GafsaLocation

Past Weather in Gafsa — Graph

°F

Gafsa Temperature Yesterday

Maximum temperature yesterday: 55 °F (at 12:00 am)
Minimum temperature yesterday: 48 °F (at 10:00 pm)
Average temperature yesterday: 52 °F

High & Low Weather Summary for the Past Weeks

 TemperatureHumidityPressure
High77 °F (Mar 15, 3:00 pm)94% (Mar 23, 6:00 am)30.24 "Hg (Mar 23, 6:00 am)
Low39 °F (Mar 26, 7:00 am)24% (Mar 27, 2:00 pm)29.56 "Hg (Mar 25, 7:00 am)
Average57 °F64%29.95 "Hg
* Reported Mar 15 8:00 am — Mar 30 8:00 am, Gafsa. Weather by CustomWeather, © 2020

Note: Actual official high and low records may vary slightly from our data, if they occured in-between our weather recording intervals... More about our weather records

Gafsa Weather History for the Previous 24 Hours

Scroll right to see more
 ConditionsComfort  
Time TempWeatherWind HumidityBarometerVisibility
8:00 am
Mon, Mar 30
50 °FPassing clouds.3 mph71%29.98 "HgN/A
7:00 am45 °FPassing clouds.5 mph87%29.95 "HgN/A
6:00 am45 °FPassing clouds.3 mph81%29.95 "HgN/A
5:00 am46 °FClear.8 mph76%29.95 "Hg10 mi
4:00 am48 °FClear.10 mph71%29.92 "Hg10 mi
3:00 am46 °FClear.7 mph87%29.95 "Hg10 mi
2:00 am46 °FPassing clouds.3 mph87%29.95 "HgN/A
1:00 am46 °FPassing clouds.3 mph87%29.95 "HgN/A
12:00 am48 °FPassing clouds.9 mph87%29.95 "HgN/A
11:00 pm
Sun, Mar 29
48 °FPassing clouds.9 mph87%29.95 "HgN/A
10:00 pm48 °FPassing clouds.9 mph87%29.95 "HgN/A
9:00 pm50 °FPassing clouds.9 mph82%29.95 "HgN/A
8:00 pm50 °FPassing clouds.13 mph88%29.92 "HgN/A
7:00 pm50 °FPassing clouds.10 mph88%29.92 "HgN/A
6:00 pm52 °FScattered clouds.8 mph82%29.92 "HgN/A
5:00 pm54 °FScattered clouds.17 mph72%29.89 "HgN/A
4:00 pm54 °FScattered clouds.17 mph77%29.86 "HgN/A
3:00 pm54 °FRain. Scattered clouds.18 mph82%29.86 "Hg4 mi
2:00 pm52 °FRain. Scattered clouds.14 mph88%29.89 "Hg4 mi
1:00 pm52 °FRain. Scattered clouds.12 mph88%29.95 "Hg4 mi
12:00 pm50 °FLight rain. Scattered clouds.12 mph94%29.95 "Hg5 mi
11:00 am52 °FLight rain. Scattered clouds.14 mph88%29.92 "Hg5 mi
10:00 am52 °FLight rain. Scattered clouds.14 mph82%29.92 "Hg5 mi
9:00 am52 °FLight rain. Scattered clouds.14 mph82%29.92 "Hg5 mi
Weather by CustomWeather, © 2020

See weather overview

Advertising